This is the latest recevied weather packets stored in our database for station/object NE1CU. If no packets are shown the sender has not sent any weather packets the latest 1 day(s).
| Time | Temp. | Humidity | Pressure | Rain* | Wind** | Luminosity | Snow |
|---|---|---|---|---|---|---|---|
| 1778023822 | 17.78° C | 61% | 1008.7 hPa | 0 mm | 0.89 m/s, 196° | 18 W/m² | - |
| 1778023520 | 17.78° C | 61% | 1008.7 hPa | 0 mm | 0.45 m/s, 85° | 22 W/m² | - |
| 1778023217 | 17.78° C | 61% | 1008.8 hPa | 0 mm | 0.45 m/s, 232° | 27 W/m² | - |
| 1778022914 | 18.33° C | 60% | 1008.9 hPa | 0 mm | 0.89 m/s, 192° | 31 W/m² | - |
| 1778022613 | 18.33° C | 60% | 1008.7 hPa | 0 mm | 1.34 m/s, 217° | 37 W/m² | - |
| 1778022309 | 18.89° C | 59% | 1008.7 hPa | 0 mm | 0.45 m/s, 130° | 42 W/m² | - |
| 1778022006 | 18.89° C | 59% | 1008.7 hPa | 0 mm | 0.89 m/s, 210° | 46 W/m² | - |
| 1778021703 | 18.89° C | 59% | 1008.4 hPa | 0 mm | 0.45 m/s, 215° | 51 W/m² | - |
| 1778021399 | 18.89° C | 59% | 1008.4 hPa | 0 mm | 0.89 m/s, 154° | 56 W/m² | - |
| 1778021096 | 19.44° C | 58% | 1008.3 hPa | 0 mm | 0.89 m/s, 112° | 61 W/m² | - |
| 1778020793 | 20° C | 57% | 1008.6 hPa | 0 mm | 0.45 m/s, 16° | 67 W/m² | - |
| 1778020490 | 20° C | 56% | 1008.8 hPa | 0 mm | 1.79 m/s, 147° | 72 W/m² | - |
| 1778020186 | 20° C | 56% | 1008.6 hPa | 0 mm | 1.34 m/s, 245° | 76 W/m² | - |
| 1778019883 | 20° C | 55% | 1008.5 hPa | 0 mm | 0.89 m/s, 238° | 81 W/m² | - |
| 1778019579 | 20° C | 55% | 1008.5 hPa | 0 mm | 0.45 m/s, 199° | 83 W/m² | - |
| 1778019276 | 20.56° C | 55% | 1008.8 hPa | 0 mm | 0.89 m/s, 93° | 85 W/m² | - |
| 1778018973 | 20.56° C | 55% | 1008.6 hPa | 0 mm | 0.45 m/s, 241° | 85 W/m² | - |
| 1778018670 | 20.56° C | 54% | 1008.7 hPa | 0 mm | 1.34 m/s, 141° | 87 W/m² | - |
| 1778018368 | 20.56° C | 55% | 1008.6 hPa | 0 mm | 0.45 m/s, 297° | 99 W/m² | - |
| 1778018066 | 20.56° C | 55% | 1008.4 hPa | 0 mm | 1.34 m/s, 145° | 103 W/m² | - |
| 1778017763 | 20.56° C | 55% | 1008.5 hPa | 0 mm | 0.89 m/s, 176° | 106 W/m² | - |
| 1778017461 | 21.11° C | 54% | 1008.8 hPa | 0 mm | 2.68 m/s, 219° | 111 W/m² | - |
| 1778017158 | 21.11° C | 55% | 1008.6 hPa | 0 mm | 0.89 m/s, 142° | 180 W/m² | - |
| 1778016856 | 21.67° C | 53% | 1008.5 hPa | 0 mm | 1.34 m/s, 160° | 277 W/m² | - |
| 1778016552 | 21.67° C | 53% | 1008.4 hPa | 0 mm | 1.79 m/s, 227° | 252 W/m² | - |
* Rain latest hour (hover to see other rain measurements)
** Current wind speed in m/s (hover to see current wind gust speed)